Terminal Aerodrome Forecast
Issued by NWS

Home | Current Version | Previous Version | Graphics & Text | Print | Product List | Glossary On
Versions: 1 2 3 4 5 6 7 8 9 10 11 12 13 14 15 16 17 18 19 20 21 22 23 24 25 26 27
423
FTUS43 KBIS 262020 AAA
TAFMOT
TAF AMD
KMOT 262020Z 2620/2718 32008KT P6SM VCTS SCT025 BKN040CB
      TEMPO 2621/2701 -TSRA BKN020 OVC040CB
     FM270300 33005KT P6SM SCT050 BKN070
     FM270700 32004KT P6SM BKN009 OVC015
     FM271500 34005KT P6SM BKN020 OVC035=

USA.gov is the U.S. government's official web portal to all federal, state and local government web resources and services.